| time (UTC) | temp F | wind direction | speed knots | gust knots | rain 1hr in | rain 24hr in | rain mn in | humidity % | barometer mb |
| 20260503054851 | 79 | 99 | 2.6 | 8.7 | 0.00 | 0.01 | 0.00 | 58 | 1018.0 |
| 20260503054351 | 79 | 53 | 2.6 | 8.7 | 0.00 | 0.01 | 0.00 | 57 | 1017.9 |
| 20260503053851 | 79 | 55 | 2.6 | 8.7 | 0.00 | 0.08 | 0.00 | 56 | 1017.8 |
| 20260503053351 | 80 | 63 | 2.6 | 5.2 | 0.00 | 0.08 | 0.00 | 56 | 1017.8 |
| 20260503052851 | 80 | 126 | 3.5 | 7.0 | 0.00 | 0.08 | 0.00 | 55 | 1017.8 |
| 20260503052442 | 80 | 82 | 3.5 | 10.4 | 0.00 | 0.08 | 0.00 | 56 | 1017.8 |
| 20260503052351 | 80 | 82 | 3.5 | 10.4 | 0.00 | 0.08 | 0.00 | 56 | 1017.8 |
| 20260503051851 | 80 | 90 | 3.5 | 7.8 | 0.00 | 0.08 | 0.00 | 57 | 1017.7 |
| 20260503051642 | 80 | 355 | 3.5 | 10.4 | 0.00 | 0.08 | 0.00 | 58 | 1017.7 |
| 20260503051351 | 80 | 355 | 3.5 | 10.4 | 0.00 | 0.08 | 0.00 | 58 | 1017.7 |
| 20260503050851 | 80 | 73 | 3.5 | 10.4 | 0.00 | 0.08 | 0.00 | 57 | 1017.7 |
| 20260503050834 | 80 | 76 | 3.5 | 8.7 | 0.00 | 0.08 | 0.00 | 55 | 1017.8 |
| 20260503050351 | 80 | 76 | 3.5 | 8.7 | 0.00 | 0.08 | 0.00 | 55 | 1017.8 |
| 20260503045851 | 80 | 69 | 3.5 | 7.8 | 0.00 | 0.08 | 0.00 | 56 | 1017.8 |
| 20260503045351 | 80 | 20 | 4.3 | 7.8 | 0.00 | 0.08 | 0.00 | 56 | 1017.7 |
| 20260503044851 | 80 | 64 | 3.5 | 7.8 | 0.00 | 0.08 | 0.00 | 55 | 1017.6 |
| 20260503044351 | 80 | 119 | 3.5 | 8.7 | 0.00 | 0.08 | 0.00 | 55 | 1017.7 |
| 20260503043851 | 80 | 123 | 4.3 | 7.0 | 0.00 | 0.08 | 0.00 | 54 | 1017.8 |
| 20260503043846 | 80 | 83 | 6.1 | 9.6 | 0.00 | 0.08 | 0.00 | 54 | 1017.8 |
| 20260503043351 | 80 | 83 | 6.1 | 9.6 | 0.00 | 0.08 | 0.00 | 54 | 1017.8 |
| 20260503042851 | 81 | 102 | 4.3 | 10.4 | 0.00 | 0.08 | 0.00 | 53 | 1017.6 |
| 20260503042351 | 82 | 109 | 2.6 | 7.0 | 0.00 | 0.08 | 0.00 | 53 | 1017.8 |
| 20260503041851 | 81 | 65 | 3.5 | 6.1 | 0.00 | 0.08 | 0.00 | 51 | 1017.8 |
| 20260503041351 | 81 | 116 | 3.5 | 7.0 | 0.00 | 0.08 | 0.00 | 50 | 1017.8 |
| 20260503040851 | 81 | 68 | 3.5 | 7.8 | 0.00 | 0.08 | 0.00 | 50 | 1017.8 |
| 20260503040351 | 81 | 70 | 3.5 | 7.8 | 0.00 | 0.08 | 0.00 | 52 | 1017.8 |
| 20260503035851 | 81 | 42 | 3.5 | 13.0 | 0.00 | 0.08 | 0.00 | 52 | 1017.8 |
| 20260503035351 | 81 | 57 | 2.6 | 6.1 | 0.00 | 0.08 | 0.00 | 54 | 1017.8 |
| 20260503034851 | 81 | 126 | 4.3 | 8.7 | 0.00 | 0.08 | 0.00 | 54 | 1018.0 |
| 20260503034440 | 80 | 98 | 4.3 | 9.6 | 0.00 | 0.08 | 0.00 | 55 | 1018.0 |
| 20260503034351 | 80 | 98 | 4.3 | 9.6 | 0.00 | 0.08 | 0.00 | 55 | 1018.0 |
| 20260503033851 | 80 | 149 | 4.3 | 9.6 | 0.00 | 0.08 | 0.00 | 55 | 1018.0 |
| 20260503033631 | 80 | 130 | 4.3 | 8.7 | 0.00 | 0.08 | 0.00 | 56 | 1018.0 |
| 20260503033351 | 80 | 130 | 4.3 | 8.7 | 0.00 | 0.08 | 0.00 | 56 | 1018.0 |
| 20260503032933 | 81 | 115 | 4.3 | 11.3 | 0.00 | 0.08 | 0.00 | 55 | 1018.0 |
| 20260503032851 | 80 | 62 | 5.2 | 11.3 | 0.00 | 0.08 | 0.00 | 55 | 1018.1 |
| 20260503032351 | 81 | 115 | 4.3 | 11.3 | 0.00 | 0.08 | 0.00 | 55 | 1018.0 |
| 20260503031851 | 81 | 103 | 4.3 | 9.6 | 0.00 | 0.08 | 0.00 | 55 | 1018.0 |
| 20260503031351 | 80 | 32 | 2.6 | 7.8 | 0.00 | 0.08 | 0.00 | 55 | 1018.1 |
| 20260503030851 | 80 | 61 | 2.6 | 8.7 | 0.00 | 0.08 | 0.00 | 56 | 1018.2 |
| 20260503030351 | 79 | 119 | 2.6 | 7.0 | 0.00 | 0.08 | 0.00 | 57 | 1018.3 |
| 20260503025941 | 80 | 105 | 2.6 | 5.2 | 0.00 | 0.08 | 0.00 | 58 | 1018.3 |
| 20260503025851 | 80 | 105 | 2.6 | 5.2 | 0.00 | 0.08 | 0.00 | 58 | 1018.3 |
| 20260503025351 | 81 | 126 | 3.5 | 7.8 | 0.00 | 0.08 | 0.00 | 59 | 1018.4 |
| 20260503024851 | 81 | 146 | 2.6 | 6.1 | 0.00 | 0.08 | 0.00 | 57 | 1018.4 |
| 20260503024351 | 81 | 41 | 2.6 | 7.8 | 0.00 | 0.08 | 0.00 | 58 | 1018.5 |
| 20260503023851 | 81 | 108 | 2.6 | 8.7 | 0.00 | 0.08 | 0.00 | 57 | 1018.6 |
| 20260503023351 | 81 | 113 | 2.6 | 7.0 | 0.00 | 0.08 | 0.00 | 60 | 1018.7 |
| 20260503023236 | 80 | 140 | 3.5 | 6.1 | 0.00 | 0.08 | 0.00 | 58 | 1018.7 |
| 20260503022851 | 80 | 140 | 3.5 | 6.1 | 0.00 | 0.08 | 0.00 | 58 | 1018.7 |
| 20260503022351 | 80 | 59 | 3.5 | 7.0 | 0.00 | 0.08 | 0.00 | 60 | 1018.8 |
| 20260503021851 | 79 | 74 | 3.5 | 8.7 | 0.00 | 0.08 | 0.00 | 61 | 1018.9 |
| 20260503021351 | 79 | 112 | 3.5 | 8.7 | 0.00 | 0.08 | 0.00 | 61 | 1019.0 |
| 20260503020851 | 78 | 71 | 3.5 | 7.0 | 0.00 | 0.08 | 0.00 | 61 | 1019.1 |
| 20260503020351 | 78 | 74 | 2.6 | 6.1 | 0.00 | 0.08 | 0.00 | 63 | 1019.3 |
| 20260503015955 | 78 | 111 | 2.6 | 6.1 | 0.00 | 0.08 | 0.00 | 63 | 1019.3 |
| 20260503015851 | 78 | 111 | 2.6 | 6.1 | 0.00 | 0.08 | 0.00 | 63 | 1019.3 |
| 20260503015351 | 78 | 65 | 3.5 | 10.4 | 0.00 | 0.08 | 0.00 | 62 | 1019.5 |
| 20260503014940 | 78 | 130 | 2.6 | 7.8 | 0.00 | 0.08 | 0.00 | 63 | 1019.6 |
| 20260503014851 | 78 | 130 | 2.6 | 7.8 | 0.00 | 0.08 | 0.00 | 63 | 1019.6 |
| 20260503014351 | 78 | 87 | 2.6 | 5.2 | 0.00 | 0.08 | 0.00 | 64 | 1019.6 |
| 20260503014132 | 77 | 85 | 3.5 | 9.6 | 0.00 | 0.09 | 0.00 | 64 | 1019.7 |
| 20260503013851 | 77 | 85 | 3.5 | 9.6 | 0.00 | 0.09 | 0.00 | 64 | 1019.7 |
| 20260503013351 | 77 | 160 | 2.6 | 7.8 | 0.00 | 0.09 | 0.00 | 64 | 1019.7 |
| 20260503012851 | 77 | 127 | 2.6 | 6.1 | 0.00 | 0.09 | 0.00 | 64 | 1019.9 |
| 20260503012351 | 77 | 113 | 2.6 | 5.2 | 0.00 | 0.09 | 0.00 | 66 | 1020.1 |
| 20260503011851 | 76 | 117 | 3.5 | 7.8 | 0.00 | 0.09 | 0.00 | 67 | 1020.1 |
| 20260503011433 | 76 | 119 | 3.5 | 7.0 | 0.00 | 0.09 | 0.00 | 68 | 1020.2 |
| 20260503011351 | 76 | 119 | 3.5 | 7.0 | 0.00 | 0.09 | 0.00 | 68 | 1020.2 |
| 20260503010851 | 76 | 169 | 3.5 | 7.8 | 0.00 | 0.09 | 0.00 | 67 | 1020.3 |
| 20260503010351 | 76 | 143 | 3.5 | 7.8 | 0.00 | 0.09 | 0.00 | 66 | 1020.4 |
| 20260503005851 | 77 | 121 | 3.5 | 8.7 | 0.00 | 0.09 | 0.00 | 66 | 1020.4 |
| 20260503005351 | 77 | 110 | 3.5 | 7.0 | 0.00 | 0.09 | 0.00 | 66 | 1020.5 |
| 20260503004851 | 77 | 110 | 2.6 | 6.1 | 0.00 | 0.09 | 0.00 | 65 | 1020.6 |
| 20260503004351 | 78 | 145 | 1.7 | 6.1 | 0.00 | 0.09 | 0.00 | 65 | 1020.7 |
| 20260503003851 | 78 | 124 | 1.7 | 4.3 | 0.00 | 0.09 | 0.00 | 66 | 1020.7 |
| 20260503003641 | 79 | 106 | 1.7 | 7.8 | 0.00 | 0.09 | 0.00 | 65 | 1020.8 |
| 20260503003351 | 78 | 44 | 2.6 | 6.1 | 0.00 | 0.09 | 0.00 | 65 | 1020.8 |
| 20260503002851 | 79 | 106 | 1.7 | 7.8 | 0.00 | 0.09 | 0.00 | 65 | 1020.8 |
| 20260503002351 | 79 | 191 | 1.7 | 7.0 | 0.00 | 0.09 | 0.00 | 65 | 1020.9 |
| 20260503001851 | 78 | 163 | 1.7 | 5.2 | 0.00 | 0.09 | 0.00 | 65 | 1020.9 |
| 20260503001351 | 78 | 82 | 1.7 | 5.2 | 0.00 | 0.09 | 0.00 | 65 | 1021.0 |
| 20260503000851 | 78 | 177 | 0.9 | 2.6 | 0.00 | 0.09 | 0.00 | 67 | 1021.1 |
| 20260503000351 | 77 | 176 | 0.9 | 2.6 | 0.00 | 0.09 | 0.00 | 66 | 1021.2 |
| 20260502235851 | 77 | 178 | 0.9 | 2.6 | 0.00 | 0.09 | 0.00 | 67 | 1021.2 |
| 20260502235351 | 76 | 179 | 0.9 | 2.6 | 0.00 | 0.09 | 0.00 | 67 | 1021.2 |
| 20260502234851 | 76 | 184 | 0.9 | 1.7 | 0.00 | 0.09 | 0.00 | 68 | 1021.2 |
| 20260502234351 | 76 | 184 | 0.9 | 2.6 | 0.00 | 0.09 | 0.00 | 69 | 1021.2 |
| 20260502233851 | 75 | 184 | 0.0 | 2.6 | 0.00 | 0.09 | 0.00 | 70 | 1021.3 |
| 20260502233351 | 75 | 184 | 0.0 | 0.0 | 0.00 | 0.09 | 0.00 | 71 | 1021.4 |
| 20260502232851 | 74 | 184 | 0.0 | 0.0 | 0.00 | 0.09 | 0.00 | 71 | 1021.5 |
| 20260502232536 | 74 | 184 | 0.0 | 0.0 | 0.00 | 0.09 | 0.00 | 74 | 1021.4 |
| 20260502232351 | 74 | 184 | 0.0 | 0.0 | 0.00 | 0.09 | 0.00 | 74 | 1021.4 |
| 20260502231851 | 73 | 184 | 0.0 | 0.0 | 0.00 | 0.09 | 0.00 | 75 | 1021.4 |
| 20260502231351 | 72 | 184 | 0.0 | 0.0 | 0.00 | 0.09 | 0.00 | 77 | 1021.5 |
| 20260502230851 | 71 | 184 | 0.0 | 0.0 | 0.00 | 0.09 | 0.00 | 77 | 1021.6 |
| 20260502230351 | 71 | 184 | 0.0 | 0.0 | 0.00 | 0.09 | 0.00 | 79 | 1021.5 |
| 20260502225932 | 70 | 184 | 0.9 | 4.3 | 0.00 | 0.09 | 0.00 | 80 | 1021.5 |
| 20260502225851 | 70 | 184 | 0.9 | 2.6 | 0.00 | 0.09 | 0.00 | 79 | 1021.6 |
| 20260502225351 | 70 | 184 | 0.9 | 4.3 | 0.00 | 0.09 | 0.00 | 80 | 1021.5 |
| 20260502224851 | 69 | 150 | 0.0 | 0.9 | 0.00 | 0.09 | 0.00 | 82 | 1021.4 |
| 20260502224351 | 68 | 150 | 0.0 | 2.6 | 0.00 | 0.09 | 0.00 | 82 | 1021.4 |
| 20260502223851 | 68 | 150 | 0.0 | 0.9 | 0.00 | 0.09 | 0.00 | 83 | 1021.4 |
| 20260502223351 | 67 | 150 | 0.0 | 0.0 | 0.00 | 0.09 | 0.00 | 87 | 1021.3 |
| 20260502222851 | 66 | 150 | 0.0 | 0.9 | 0.00 | 0.09 | 0.00 | 88 | 1021.3 |
| 20260502222351 | 66 | 150 | 0.9 | 2.6 | 0.00 | 0.09 | 0.00 | 90 | 1021.4 |
| 20260502221851 | 65 | 150 | 0.9 | 2.6 | 0.00 | 0.09 | 0.00 | 91 | 1021.4 |
| 20260502221351 | 64 | 150 | 0.0 | 2.6 | 0.00 | 0.09 | 0.00 | 92 | 1021.4 |
| 20260502220851 | 64 | 150 | 0.0 | 1.7 | 0.00 | 0.09 | 0.00 | 93 | 1021.2 |
| 20260502220351 | 64 | 150 | 0.0 | 1.7 | 0.00 | 0.09 | 0.00 | 93 | 1021.2 |
| 20260502215851 | 63 | 150 | 0.9 | 1.7 | 0.00 | 0.09 | 0.00 | 94 | 1021.0 |
| 20260502215351 | 63 | 150 | 0.9 | 2.6 | 0.00 | 0.09 | 0.00 | 95 | 1021.0 |
| 20260502214852 | 63 | 150 | 0.0 | 1.7 | 0.00 | 0.09 | 0.00 | 95 | 1020.9 |
| 20260502214351 | 62 | 150 | 0.0 | 1.7 | 0.00 | 0.09 | 0.00 | 95 | 1020.9 |
| 20260502213851 | 62 | 150 | 0.0 | 0.9 | 0.00 | 0.09 | 0.00 | 95 | 1020.8 |
| 20260502213352 | 61 | 150 | 0.0 | 1.7 | 0.00 | 0.09 | 0.00 | 95 | 1020.9 |
| 20260502212852 | 61 | 150 | 0.0 | 0.9 | 0.00 | 0.09 | 0.00 | 95 | 1020.9 |
| 20260502212351 | 61 | 150 | 0.0 | 0.0 | 0.00 | 0.09 | 0.00 | 95 | 1020.9 |
| 20260502211851 | 61 | 150 | 0.0 | 0.0 | 0.00 | 0.09 | 0.00 | 95 | 1020.8 |
| 20260502211352 | 61 | 150 | 0.0 | 0.0 | 0.00 | 0.09 | 0.00 | 95 | 1020.7 |
| 20260502210852 | 61 | 150 | 0.0 | 0.0 | 0.00 | 0.09 | 0.00 | 95 | 1020.8 |
| 20260502210352 | 60 | 150 | 0.0 | 0.0 | 0.00 | 0.09 | 0.00 | 95 | 1020.8 |
| 20260502205852 | 60 | 150 | 0.0 | 0.0 | 0.00 | 0.09 | 0.00 | 95 | 1020.8 |
| 20260502205352 | 60 | 150 | 0.0 | 0.0 | 0.00 | 0.09 | 0.00 | 95 | 1020.8 |
| 20260502204852 | 60 | 150 | 0.0 | 0.0 | 0.00 | 0.09 | 0.00 | 94 | 1020.6 |
| 20260502204537 | 60 | 150 | 0.0 | 0.0 | 0.00 | 0.09 | 0.00 | 94 | 1020.7 |
| 20260502204352 | 60 | 150 | 0.0 | 0.0 | 0.00 | 0.09 | 0.00 | 94 | 1020.7 |
| 20260502204141 | 60 | 150 | 0.0 | 0.0 | 0.00 | 0.10 | 0.00 | 94 | 1020.5 |
| 20260502203852 | 60 | 150 | 0.0 | 0.0 | 0.00 | 0.10 | 0.00 | 94 | 1020.5 |
| 20260502203518 | 60 | 150 | 0.0 | 0.0 | 0.00 | 0.10 | 0.00 | 94 | 1020.4 |
| 20260502203431 | 60 | 150 | 0.0 | 0.0 | 0.00 | 0.10 | 0.00 | 94 | 1020.4 |
| 20260502203352 | 60 | 150 | 0.0 | 0.0 | 0.00 | 0.10 | 0.00 | 94 | 1020.4 |
| 20260502202852 | 60 | 150 | 0.0 | 0.0 | 0.00 | 0.10 | 0.00 | 94 | 1020.4 |
| 20260502202352 | 60 | 150 | 0.0 | 0.0 | 0.00 | 0.10 | 0.00 | 94 | 1020.4 |
| 20260502201852 | 60 | 150 | 0.0 | 0.0 | 0.00 | 0.10 | 0.00 | 94 | 1020.4 |
| 20260502201352 | 60 | 150 | 0.0 | 0.0 | 0.00 | 0.10 | 0.00 | 94 | 1020.4 |
| 20260502200852 | 60 | 150 | 0.0 | 0.0 | 0.00 | 0.10 | 0.00 | 94 | 1020.4 |
| 20260502200352 | 60 | 150 | 0.0 | 0.0 | 0.00 | 0.10 | 0.00 | 94 | 1020.3 |
| 20260502195852 | 60 | 150 | 0.0 | 0.0 | 0.00 | 0.10 | 0.00 | 94 | 1020.4 |
| 20260502195352 | 60 | 150 | 0.0 | 0.0 | 0.00 | 0.10 | 0.00 | 94 | 1020.4 |
| 20260502194852 | 60 | 150 | 0.0 | 1.7 | 0.00 | 0.10 | 0.00 | 94 | 1020.2 |
| 20260502194352 | 60 | 150 | 0.0 | 0.0 | 0.00 | 0.10 | 0.00 | 94 | 1020.2 |
| 20260502193852 | 60 | 150 | 0.0 | 0.0 | 0.00 | 0.10 | 0.00 | 94 | 1020.2 |
| 20260502193352 | 60 | 150 | 0.0 | 0.0 | 0.00 | 0.10 | 0.00 | 94 | 1020.1 |
| 20260502192852 | 60 | 150 | 0.0 | 0.0 | 0.00 | 0.10 | 0.00 | 94 | 1020.0 |
| 20260502192352 | 60 | 150 | 0.0 | 2.6 | 0.00 | 0.10 | 0.00 | 94 | 1020.0 |
| 20260502191852 | 60 | 150 | 0.0 | 1.7 | 0.00 | 0.10 | 0.00 | 94 | 1020.1 |
| 20260502191352 | 60 | 150 | 0.0 | 0.0 | 0.00 | 0.10 | 0.00 | 94 | 1020.1 |
| 20260502190852 | 60 | 150 | 0.0 | 0.0 | 0.00 | 0.10 | 0.00 | 94 | 1020.1 |
| 20260502190352 | 61 | 150 | 0.0 | 0.0 | 0.00 | 0.10 | 0.00 | 93 | 1020.0 |
| 20260502185852 | 61 | 150 | 0.0 | 0.0 | 0.00 | 0.10 | 0.00 | 93 | 1020.1 |
| 20260502185352 | 61 | 150 | 0.0 | 0.0 | 0.00 | 0.10 | 0.00 | 93 | 1020.0 |
| 20260502185036 | 61 | 150 | 0.0 | 0.0 | 0.00 | 0.10 | 0.00 | 93 | 1019.9 |
| 20260502184852 | 61 | 150 | 0.0 | 0.0 | 0.00 | 0.10 | 0.00 | 94 | 1019.9 |
| 20260502184352 | 61 | 150 | 0.0 | 0.0 | 0.00 | 0.10 | 0.00 | 94 | 1019.9 |
| 20260502183852 | 61 | 150 | 0.0 | 0.0 | 0.00 | 0.10 | 0.00 | 93 | 1019.9 |
| 20260502183352 | 61 | 150 | 0.0 | 0.0 | 0.00 | 0.10 | 0.00 | 93 | 1019.9 |
| 20260502182941 | 61 | 150 | 0.0 | 0.0 | 0.00 | 0.10 | 0.00 | 93 | 1019.9 |
| 20260502182852 | 61 | 150 | 0.0 | 0.0 | 0.00 | 0.10 | 0.00 | 93 | 1019.9 |
| 20260502182352 | 61 | 150 | 0.0 | 0.0 | 0.00 | 0.10 | 0.00 | 93 | 1019.8 |
| 20260502182041 | 61 | 150 | 0.0 | 0.0 | 0.00 | 0.10 | 0.00 | 93 | 1019.9 |
| 20260502181852 | 61 | 150 | 0.0 | 0.0 | 0.00 | 0.10 | 0.00 | 93 | 1019.8 |
| 20260502181352 | 61 | 150 | 0.0 | 0.0 | 0.00 | 0.10 | 0.00 | 93 | 1019.9 |
| 20260502180852 | 61 | 150 | 0.0 | 0.0 | 0.00 | 0.10 | 0.00 | 93 | 1020.0 |
| 20260502180352 | 61 | 150 | 0.0 | 0.0 | 0.00 | 0.10 | 0.00 | 93 | 1019.9 |
| 20260502170352 | 62 | 149 | 0.0 | 2.6 | 0.00 | 0.10 | 0.00 | 93 | 1020.0 |
| 20260502163852 | 63 | 146 | 0.0 | 0.0 | 0.00 | 0.10 | 0.00 | 93 | 1020.3 |
| 20260502163352 | 63 | 146 | 0.0 | 0.0 | 0.00 | 0.10 | 0.00 | 93 | 1020.4 |
| 20260502162852 | 63 | 146 | 0.0 | 0.0 | 0.00 | 0.10 | 0.00 | 92 | 1020.4 |
| 20260502162352 | 63 | 146 | 0.0 | 0.0 | 0.00 | 0.10 | 0.00 | 92 | 1020.5 |
| 20260502161852 | 63 | 146 | 0.0 | 0.0 | 0.00 | 0.10 | 0.00 | 92 | 1020.5 |
| 20260502161352 | 63 | 146 | 0.0 | 0.0 | 0.00 | 0.10 | 0.00 | 92 | 1020.3 |
| 20260502160852 | 63 | 146 | 0.0 | 0.0 | 0.00 | 0.10 | 0.00 | 92 | 1020.4 |
| 20260502160352 | 63 | 146 | 0.0 | 0.0 | 0.00 | 0.10 | 0.00 | 92 | 1020.4 |
| 20260502151852 | 64 | 146 | 0.0 | 0.9 | 0.00 | 0.10 | 0.00 | 92 | 1020.8 |
| 20260502151352 | 64 | 146 | 0.0 | 2.6 | 0.00 | 0.10 | 0.00 | 92 | 1020.8 |
| 20260502150852 | 65 | 146 | 0.0 | 0.0 | 0.00 | 0.10 | 0.00 | 92 | 1020.8 |
| 20260502150352 | 65 | 146 | 0.0 | 0.0 | 0.00 | 0.10 | 0.00 | 93 | 1020.8 |
| 20260502130352 | 66 | 146 | 0.0 | 0.0 | 0.00 | 0.12 | 0.12 | 92 | 1020.8 |
| 20260502123352 | 67 | 146 | 0.0 | 0.0 | 0.00 | 0.13 | 0.12 | 92 | 1021.2 |
| 20260502122852 | 67 | 146 | 0.0 | 0.0 | 0.00 | 0.13 | 0.12 | 92 | 1021.2 |
| 20260502122352 | 67 | 146 | 0.0 | 0.0 | 0.00 | 0.13 | 0.12 | 92 | 1021.2 |
| 20260502121852 | 67 | 146 | 0.0 | 0.0 | 0.00 | 0.13 | 0.12 | 92 | 1021.1 |
| 20260502121352 | 67 | 146 | 0.0 | 0.0 | 0.00 | 0.13 | 0.12 | 92 | 1021.2 |
| 20260502120852 | 67 | 146 | 0.0 | 0.0 | 0.00 | 0.13 | 0.12 | 92 | 1021.3 |
| 20260502120352 | 67 | 146 | 0.0 | 0.0 | 0.00 | 0.13 | 0.12 | 92 | 1021.3 |
| 20260502115852 | 67 | 146 | 0.0 | 0.0 | 0.00 | 0.13 | 0.12 | 92 | 1021.5 |
| 20260502115352 | 68 | 146 | 0.0 | 0.0 | 0.00 | 0.13 | 0.12 | 92 | 1021.5 |
| 20260502114852 | 68 | 146 | 0.0 | 0.0 | 0.00 | 0.13 | 0.12 | 92 | 1021.4 |
| 20260502114352 | 68 | 146 | 0.0 | 0.0 | 0.00 | 0.13 | 0.12 | 92 | 1021.4 |
| 20260502113852 | 68 | 146 | 0.0 | 0.0 | 0.00 | 0.13 | 0.12 | 92 | 1021.3 |
| 20260502113353 | 68 | 146 | 0.0 | 0.0 | 0.00 | 0.13 | 0.12 | 92 | 1021.3 |
| 20260502112852 | 68 | 146 | 0.0 | 0.0 | 0.00 | 0.13 | 0.12 | 91 | 1021.3 |
| 20260502112352 | 68 | 146 | 0.0 | 0.0 | 0.00 | 0.13 | 0.12 | 91 | 1021.2 |
| 20260502111852 | 68 | 146 | 0.0 | 0.0 | 0.00 | 0.13 | 0.12 | 91 | 1021.2 |
| 20260502111352 | 68 | 146 | 0.0 | 0.0 | 0.00 | 0.13 | 0.12 | 91 | 1021.1 |
| 20260502110852 | 68 | 146 | 0.0 | 0.0 | 0.00 | 0.13 | 0.12 | 91 | 1021.2 |
| 20260502110352 | 68 | 146 | 0.0 | 0.0 | 0.00 | 0.13 | 0.12 | 91 | 1021.1 |
| 20260502105852 | 68 | 146 | 0.0 | 0.0 | 0.00 | 0.13 | 0.12 | 91 | 1021.3 |
| 20260502105352 | 68 | 146 | 0.0 | 0.0 | 0.01 | 0.13 | 0.12 | 91 | 1021.3 |
| 20260502104852 | 68 | 146 | 0.0 | 0.0 | 0.01 | 0.13 | 0.12 | 90 | 1021.2 |
| 20260502104352 | 68 | 146 | 0.0 | 0.0 | 0.01 | 0.13 | 0.12 | 90 | 1021.1 |
| 20260502103852 | 68 | 146 | 0.0 | 0.0 | 0.01 | 0.13 | 0.12 | 90 | 1021.1 |
| 20260502103352 | 69 | 146 | 0.0 | 0.0 | 0.01 | 0.13 | 0.12 | 90 | 1021.1 |
| 20260502102852 | 69 | 146 | 0.0 | 0.0 | 0.01 | 0.13 | 0.12 | 90 | 1021.1 |
| 20260502102352 | 69 | 146 | 0.0 | 0.0 | 0.01 | 0.13 | 0.12 | 90 | 1021.1 |
| 20260502101852 | 69 | 146 | 0.0 | 0.0 | 0.01 | 0.13 | 0.12 | 90 | 1021.2 |
| 20260502101352 | 69 | 146 | 0.0 | 0.9 | 0.01 | 0.13 | 0.12 | 90 | 1021.1 |
| 20260502100852 | 69 | 146 | 1.7 | 2.6 | 0.01 | 0.13 | 0.12 | 90 | 1021.0 |
| 20260502100353 | 69 | 146 | 0.9 | 6.1 | 0.01 | 0.13 | 0.12 | 90 | 1021.1 |
| 20260502091353 | 69 | 103 | 2.6 | 8.7 | 0.00 | 0.13 | 0.11 | 88 | 1020.4 |
| 20260502090853 | 69 | 113 | 1.7 | 7.0 | 0.00 | 0.13 | 0.11 | 89 | 1020.5 |
| 20260502090353 | 69 | 126 | 0.9 | 4.3 | 0.00 | 0.13 | 0.11 | 90 | 1020.5 |
| 20260502071353 | 70 | 103 | 0.0 | 0.0 | 0.07 | 0.13 | 0.11 | 88 | 1019.6 |
| 20260502070853 | 70 | 103 | 0.0 | 0.0 | 0.07 | 0.13 | 0.11 | 88 | 1019.6 |
| 20260502070353 | 70 | 103 | 0.9 | 0.9 | 0.07 | 0.13 | 0.11 | 87 | 1019.5 |
| 20260502065853 | 70 | 103 | 1.7 | 2.6 | 0.07 | 0.13 | 0.11 | 87 | 1019.5 |
| 20260502065353 | 71 | 103 | 1.7 | 5.2 | 0.07 | 0.13 | 0.11 | 87 | 1019.4 |
| 20260502064853 | 71 | 92 | 0.9 | 3.5 | 0.07 | 0.13 | 0.11 | 86 | 1019.4 |
| 20260502064353 | 71 | 86 | 0.0 | 1.7 | 0.07 | 0.13 | 0.11 | 85 | 1019.5 |
| 20260502063853 | 72 | 87 | 0.0 | 2.6 | 0.07 | 0.13 | 0.11 | 84 | 1019.5 |
| 20260502063353 | 72 | 87 | 0.0 | 0.9 | 0.07 | 0.13 | 0.11 | 83 | 1019.3 |